Somerville, NJ

5:23 PM EST on November 21, 2019 (GMT -0500)
Somerset

Weather History for KSMQ - September, 2019

Change the Weather History Date:

Friday, September 13, 2019

  Actual Average Record
Temperature  
Mean Temperature 66 °F -  
Max Temperature 72 °F 78 °F 94 °F (1952)
Min Temperature 59 °F 52 °F 39 °F (1958)
Growing Degree Days 16 (Base 50)    
Moisture  
Dew Point 53 °F    
Average Humidity 69    
Maximum Humidity 90    
Minimum Humidity 51    
Precipitation  
Precipitation 0.00 in - - ()
Sea Level Pressure  
Sea Level Pressure 30.39 in    
Wind  
Wind Speed 5 mph (ENE)    
Max Wind Speed 9 mph    
Max Gust Speed -    
Visibility 10 miles    
Events      
Averages and records for this station are not official NWS values.
T = Trace of Precipitation, MM = Missing Value Source: NWS Daily Summary

Daily Weather History Graph

Daily Weather History Graph

Search for Another Location

Airport or City:

Astronomy

Sep. 13, 2019 Rise Set
Actual Time 6:37 AM EDT 7:11 PM EDT
Civil Twilight 6:09 AM EDT 7:38 PM EDT
Nautical Twilight 5:37 AM EDT 8:11 PM EDT
Astronomical Twilight 5:03 AM EDT 8:44 PM EDT
Moon 7:24 PM EDT (9/13) 5:51 AM EDT (9/13)
Length of Visible Light 13h 29m
Length of Day
12h 34m
Full, 100% of the Moon is Illuminated
Sep 13
Full
Sep 14
Full
Sep 21
Last Quarter
Sep 28
New
Oct 5
First Quarter

Hourly Weather History & Observations

Time (EDT) Temp. Dew Point Humidity Pressure Visibility Wind Dir Wind Speed Gust Speed Precip Events Conditions
12:07 AM 63.0 °F 60.1 °F 90% 30.27 in 10.0 mi NE 5.8 mph - N/A   Overcast
12:53 AM 63.0 °F 60.1 °F 90% 30.28 in 10.0 mi NNE 3.5 mph - N/A   Overcast
1:53 AM 63.0 °F 59.0 °F 87% 30.29 in 10.0 mi NE 3.5 mph - N/A   Overcast
2:53 AM 62.1 °F 57.0 °F 84% 30.30 in 10.0 mi North - - N/A   Overcast
3:53 AM 61.0 °F 55.0 °F 81% 30.31 in 10.0 mi NE 9.2 mph - N/A   Overcast
4:53 AM 60.1 °F 55.0 °F 83% 30.34 in 10.0 mi NNE 4.6 mph - N/A   Overcast
5:53 AM 60.1 °F 53.1 °F 78% 30.35 in 10.0 mi NE 6.9 mph - N/A   Overcast
6:53 AM 59.0 °F 52.0 °F 78% 30.37 in 10.0 mi North - - N/A   Overcast
7:53 AM 60.1 °F 52.0 °F 75% 30.40 in 10.0 mi NE 8.1 mph - N/A   Overcast
8:53 AM 61.0 °F 52.0 °F 72% 30.42 in 10.0 mi East 6.9 mph - N/A   Overcast
9:53 AM 64.9 °F 52.0 °F 63% 30.43 in 10.0 mi ENE 6.9 mph - N/A   Mostly Cloudy
10:53 AM 66.9 °F 52.0 °F 59% 30.44 in 10.0 mi Variable 3.5 mph - N/A   Overcast
11:53 AM 72.0 °F 53.1 °F 51% 30.44 in 10.0 mi Variable 4.6 mph - N/A   Mostly Cloudy
12:53 PM 68.0 °F 52.0 °F 56% 30.44 in 10.0 mi East 6.9 mph - N/A   Mostly Cloudy
1:53 PM 69.1 °F 53.1 °F 57% 30.44 in 10.0 mi Variable 3.5 mph - N/A   Overcast
2:53 PM 68.0 °F 53.1 °F 59% 30.43 in 10.0 mi East 9.2 mph - N/A   Overcast
3:53 PM 71.1 °F 55.0 °F 57% 30.42 in 10.0 mi SE 6.9 mph - N/A   Overcast
4:53 PM 68.0 °F 53.1 °F 59% 30.43 in 10.0 mi Variable 4.6 mph - N/A   Overcast
5:53 PM 66.0 °F 52.0 °F 60% 30.43 in 10.0 mi Variable 6.9 mph - N/A   Overcast
6:53 PM 64.9 °F 52.0 °F 63% 30.42 in 10.0 mi Variable 3.5 mph - N/A   Overcast
7:53 PM 64.0 °F 50.0 °F 60% 30.41 in 10.0 mi Variable 5.8 mph - N/A   Overcast
8:53 PM 64.0 °F 50.0 °F 60% 30.42 in 10.0 mi SSE 4.6 mph - N/A   Overcast
9:53 PM 63.0 °F 51.1 °F 65% 30.42 in 10.0 mi North - - N/A   Overcast
10:53 PM 62.1 °F 51.1 °F 67% 30.40 in 10.0 mi Calm Calm - N/A   Overcast
11:53 PM 63.0 °F 51.1 °F 65% 30.39 in 10.0 mi Calm Calm - N/A   Overcast